When you browse on this site, cookies collect data to enhance your experience and personalize the content and advertising you see.
Visit our Privacy Policy to learn more. By continuing to use the site, you agree to this use of cookies and data.
  • Em Portugal
  • Lista de países
  • Para 7 dias
  • Temperatura da água
  • Mapas de satélite
  • Mapa do tempo
  • Widgets de tempo
  • user-avatar
    Iniciar Sessão

    Previsão horária em Cieszow

    Hoje, 18 Dezembro, Terça-feira

    Tempo Temperatura Precipitação Vento Pressão Humidade
    00:00 -2°C° 0 mm 2 m/s 734 mmHg 90%
    01:00 0°C° 0 mm 1 m/s 735 mmHg 91%
    02:00 -2°C° 0 mm 2 m/s 735 mmHg 91%
    03:00 -2°C° 0 mm 2 m/s 735 mmHg 91%
    04:00 -2°C° 0 mm 2 m/s 735 mmHg 91%
    05:00 -2°C° 0 mm 2 m/s 735 mmHg 91%
    06:00 -1°C° 0 mm 2 m/s 735 mmHg 91%
    07:00 -1°C° 0 mm 2 m/s 735 mmHg 91%
    08:00 -1°C° 0 mm 2 m/s 735 mmHg 91%
    09:00 +1°C° 0 mm 2 m/s 735 mmHg 90%
    10:00 +1°C° 0 mm 2 m/s 736 mmHg 90%
    11:00 +1°C° 0 mm 2 m/s 736 mmHg 90%
    12:00 +3°C° 0 mm 1 m/s 736 mmHg 89%
    13:00 +3°C° 0 mm 1 m/s 736 mmHg 89%
    14:00 +3°C° 0 mm 1 m/s 736 mmHg 90%
    15:00 +2°C° 0 mm 1 m/s 736 mmHg 91%
    16:00 +2°C° 0 mm 1 m/s 735 mmHg 91%
    17:00 +1°C° 0 mm 1 m/s 735 mmHg 91%
    18:00 +1°C° 0 mm 1 m/s 735 mmHg 91%
    19:00 -2°C° 0 mm 2 m/s 735 mmHg 91%
    20:00 -2°C° 0 mm 2 m/s 735 mmHg 90%
    21:00 -2°C° 0 mm 2 m/s 735 mmHg 90%
    22:00 -2°C° 0 mm 2 m/s 735 mmHg 90%
    23:00 -3°C° 0 mm 2 m/s 735 mmHg 90%

    Amanhã, 19 Dezembro, Quarta-feira

    Tempo Temperatura Precipitação Vento Pressão Humidade
    00:00 -3°C° 0 mm 2 m/s 734 mmHg 90%
    01:00 -3°C° 0 mm 2 m/s 734 mmHg 90%
    02:00 -4°C° 0 mm 3 m/s 734 mmHg 89%
    03:00 -4°C° 0 mm 3 m/s 734 mmHg 89%
    04:00 -4°C° 0 mm 3 m/s 733 mmHg 89%
    05:00 -4°C° 0 mm 3 m/s 733 mmHg 88%
    06:00 -4°C° 0 mm 3 m/s 733 mmHg 88%
    07:00 -4°C° 0 mm 3 m/s 732 mmHg 87%
    08:00 -4°C° 0 mm 4 m/s 732 mmHg 84%
    09:00 -3°C° 0 mm 4 m/s 732 mmHg 82%
    10:00 -2°C° 0 mm 4 m/s 732 mmHg 79%
    11:00 -2°C° 0 mm 4 m/s 732 mmHg 77%
    12:00 -2°C° 0 mm 4 m/s 732 mmHg 76%
    13:00 -1°C° 0 mm 5 m/s 731 mmHg 74%
    14:00 -2°C° 0 mm 4 m/s 731 mmHg 76%
    15:00 -2°C° 0 mm 4 m/s 731 mmHg 78%
    16:00 -3°C° 0 mm 4 m/s 731 mmHg 80%
    17:00 -3°C° 0 mm 4 m/s 730 mmHg 81%
    18:00 -3°C° 0 mm 4 m/s 730 mmHg 81%
    19:00 -3°C° 0 mm 4 m/s 730 mmHg 81%
    20:00 -3°C° 0 mm 4 m/s 730 mmHg 80%
    21:00 -3°C° 0 mm 4 m/s 730 mmHg 80%
    22:00 -3°C° 0 mm 4 m/s 729 mmHg 79%
    23:00 -4°C° 0 mm 4 m/s 729 mmHg 79%

    Depois de amanhã, 20 Dezembro, Quinta-feira

    Tempo Temperatura Precipitação Vento Pressão Humidade
    00:00 -4°C° 0 mm 4 m/s 729 mmHg 79%
    01:00 -4°C° 0 mm 4 m/s 729 mmHg 80%
    02:00 -4°C° 0 mm 3 m/s 729 mmHg 80%
    03:00 -4°C° 0 mm 3 m/s 729 mmHg 80%
    04:00 -4°C° 0 mm 3 m/s 729 mmHg 80%
    05:00 -5°C° 0 mm 3 m/s 729 mmHg 80%
    06:00 -5°C° 0 mm 3 m/s 729 mmHg 80%
    07:00 -5°C° 0 mm 3 m/s 729 mmHg 80%
    08:00 -4°C° 0 mm 3 m/s 729 mmHg 79%
    09:00 -4°C° 0 mm 3 m/s 729 mmHg 78%
    10:00 -4°C° 0 mm 3 m/s 729 mmHg 77%
    11:00 -2°C° 0.2 mm 3 m/s 729 mmHg 79%
    12:00 -2°C° 0.2 mm 3 m/s 729 mmHg 80%
    13:00 -1°C° 0.2 mm 3 m/s 729 mmHg 81%
    14:00 -1°C° 0.2 mm 3 m/s 729 mmHg 83%
    15:00 -1°C° 0.2 mm 3 m/s 729 mmHg 85%
    16:00 -1°C° 0.2 mm 3 m/s 729 mmHg 87%
    17:00 -1°C° 0.1 mm 3 m/s 729 mmHg 88%
    18:00 -1°C° 0.1 mm 3 m/s 729 mmHg 88%
    19:00 -1°C° 0.1 mm 3 m/s 729 mmHg 89%
    20:00 -1°C° 0 mm 3 m/s 729 mmHg 89%
    21:00 0°C° 0 mm 3 m/s 730 mmHg 89%
    22:00 0°C° 0 mm 3 m/s 730 mmHg 90%
    23:00 0°C° 0 mm 3 m/s 730 mmHg 90%

    21 Dezembro, Sexta-feira

    Tempo Temperatura Precipitação Vento Pressão Humidade
    00:00 0°C° 0 mm 3 m/s 730 mmHg 90%
    01:00 0°C° 0 mm 3 m/s 730 mmHg 91%
    02:00 0°C° 0 mm 3 m/s 730 mmHg 90%
    03:00 -1°C° 0 mm 4 m/s 730 mmHg 90%
    04:00 -1°C° 0 mm 4 m/s 730 mmHg 90%
    05:00 -1°C° 0 mm 4 m/s 730 mmHg 90%
    06:00 -1°C° 0 mm 4 m/s 730 mmHg 89%
    07:00 -1°C° 0 mm 4 m/s 730 mmHg 89%
    08:00 -1°C° 0 mm 4 m/s 730 mmHg 88%
    09:00 0°C° 0 mm 4 m/s 729 mmHg 87%
    10:00 0°C° 0 mm 4 m/s 729 mmHg 86%
    11:00 0°C° 0 mm 4 m/s 728 mmHg 85%
    12:00 +1°C° 0 mm 5 m/s 728 mmHg 84%
    13:00 +1°C° 0 mm 5 m/s 727 mmHg 83%
    14:00 +1°C° 0.2 mm 5 m/s 726 mmHg 84%
    15:00 +1°C° 0.2 mm 6 m/s 726 mmHg 84%
    16:00 +1°C° 0.2 mm 6 m/s 725 mmHg 84%
    17:00 0°C° 0.8 mm 7 m/s 724 mmHg 84%
    18:00 0°C° 0.8 mm 7 m/s 723 mmHg 84%
    19:00 0°C° 0.8 mm 7 m/s 722 mmHg 83%
    20:00 +2°C° 1 mm 7 m/s 722 mmHg 84%
    21:00 +2°C° 1 mm 8 m/s 722 mmHg 85%
    22:00 +4°C° 1 mm 8 m/s 722 mmHg 86%
    23:00 +4°C° 0.1 mm 7 m/s 722 mmHg 87%

    22 Dezembro, Sábado

    Tempo Temperatura Precipitação Vento Pressão Humidade
    00:00 +4°C° 0.1 mm 6 m/s 722 mmHg 88%
    01:00 +4°C° 0.1 mm 6 m/s 722 mmHg 88%
    02:00 +3°C° 0 mm 6 m/s 723 mmHg 87%
    03:00 +3°C° 0 mm 5 m/s 723 mmHg 86%
    04:00 +2°C° 0 mm 5 m/s 723 mmHg 85%
    05:00 +2°C° 0 mm 5 m/s 724 mmHg 84%
    06:00 +2°C° 0 mm 6 m/s 724 mmHg 83%
    07:00 +2°C° 0 mm 6 m/s 725 mmHg 83%
    08:00 +2°C° 0 mm 6 m/s 725 mmHg 82%
    09:00 +2°C° 0 mm 6 m/s 725 mmHg 81%
    10:00 +3°C° 0 mm 6 m/s 725 mmHg 80%
    11:00 +3°C° 0 mm 6 m/s 725 mmHg 80%
    12:00 +4°C° 0 mm 6 m/s 724 mmHg 79%
    13:00 +5°C° 0 mm 5 m/s 724 mmHg 78%
    14:00 +5°C° 0.1 mm 5 m/s 724 mmHg 80%
    15:00 +5°C° 0.1 mm 5 m/s 723 mmHg 82%
    16:00 +5°C° 0.1 mm 5 m/s 723 mmHg 85%
    17:00 +4°C° 0.3 mm 6 m/s 723 mmHg 85%
    18:00 +4°C° 0.3 mm 6 m/s 723 mmHg 86%
    19:00 +4°C° 0.3 mm 6 m/s 723 mmHg 87%
    20:00 +4°C° 0 mm 6 m/s 723 mmHg 84%
    21:00 +4°C° 0 mm 6 m/s 724 mmHg 82%
    22:00 +3°C° 0 mm 7 m/s 724 mmHg 80%
    23:00 +3°C° 0.1 mm 7 m/s 724 mmHg 80%

    23 Dezembro, Domingo

    Tempo Temperatura Precipitação Vento Pressão Humidade
    00:00 +3°C° 0.1 mm 7 m/s 725 mmHg 79%
    01:00 +2°C° 0.1 mm 8 m/s 725 mmHg 79%
    02:00 +3°C° 0.2 mm 7 m/s 726 mmHg 80%
    03:00 +3°C° 0.2 mm 7 m/s 726 mmHg 81%
    04:00 +3°C° 0.2 mm 7 m/s 727 mmHg 81%
    05:00 +3°C° 0 mm 7 m/s 727 mmHg 82%
    06:00 +2°C° 0 mm 6 m/s 728 mmHg 82%
    07:00 +2°C° 0 mm 6 m/s 728 mmHg 83%
    08:00 +2°C° 0.1 mm 6 m/s 728 mmHg 82%
    09:00 +3°C° 0.1 mm 6 m/s 729 mmHg 81%
    10:00 +3°C° 0.1 mm 7 m/s 729 mmHg 80%
    11:00 +3°C° 0.1 mm 7 m/s 729 mmHg 78%
    12:00 +3°C° 0.1 mm 7 m/s 730 mmHg 76%
    13:00 +3°C° 0.1 mm 7 m/s 730 mmHg 74%
    14:00 +3°C° 0.1 mm 7 m/s 730 mmHg 75%
    15:00 +3°C° 0.1 mm 6 m/s 731 mmHg 77%
    16:00 +2°C° 0.1 mm 6 m/s 731 mmHg 78%
    17:00 +2°C° 0 mm 6 m/s 731 mmHg 80%
    18:00 +2°C° 0 mm 6 m/s 732 mmHg 81%
    19:00 +1°C° 0 mm 5 m/s 732 mmHg 83%
    20:00 +1°C° 0 mm 5 m/s 733 mmHg 84%
    21:00 +1°C° 0 mm 4 m/s 733 mmHg 85%
    22:00 0°C° 0 mm 4 m/s 733 mmHg 86%
    23:00 0°C° 0 mm 4 m/s 734 mmHg 88%
    Mostrar mais